Location: *
(51.5000°S, 179.8900°E)
Time: 00:54:45
(UTC+00:00)

Daily predictions for brighter satellites

Satellite Brightness Start Highest point End
(mag) Time Altitude Azimuth Time Altitude Azimuth Time Altitude Azimuth
ATLAS 3B R/B 3.1 08:37:08 10° NNW 08:44:21 53° ENE 08:51:28 10° SE
Cosmos 1869 4.2 08:41:59 10° NNE 08:45:43 34° E 08:49:32 10° SSE
USA 308 3.0 08:42:54 10° WNW 08:47:20 86° NNE 08:51:46 10° ESE
USA 305 3.0 08:44:00 10° WNW 08:48:23 89° NNE 08:52:48 10° ESE
USA 215 3.7 08:43:09 10° NE 08:49:38 55° NW 08:56:10 10° WSW
Resurs 01 Rocket 2.8 08:45:48 10° SE 08:49:41 27° E 08:53:30 10° NNE
Cosmos 1680 Rocket 4.3 08:46:13 10° NNE 08:50:52 33° ENE 08:55:35 10° SE
Cosmos 1603 4.2 08:46:05 10° NW 08:51:51 70° WSW 08:57:38 10° SSE
Cosmos 158 Rocket 4.3 08:47:03 10° N 08:52:06 46° ENE 08:57:05 10° SE
Cosmos 1709 Rocket 4.4 08:45:55 10° S 08:52:15 52° ESE 08:58:26 10° NNE
Cosmos 1356 4.4 08:49:28 10° S 08:52:41 32° ESE 08:55:52 10° NE
Cosmos 1408 Rocket 4.1 08:49:31 10° S 08:53:53 47° ESE 08:58:08 10° NNE
Cosmos 1980 Rocket 4.3 08:56:10 10° SSW 09:00:10 19° SSE 09:04:08 10° ESE
USA 306 3.1 08:55:48 10° WNW 09:00:10 85° SSW 09:04:35 10° ESE
ATLAS CENTAUR R/B 3.2 08:59:13 10° WSW 09:03:07 54° NW 09:12:35 10° NE
Iridium 51 4.5 08:59:32 10° S 09:03:14 48° E 09:06:43 10° NNE
IRS-1A Rocket 4.4 08:58:35 10° SSE 09:04:17 67° ENE 09:10:02 10° N
Meteor 1-27 4.3 08:59:36 10° N 09:05:11 70° E 09:10:55 10° SSE
FREGAT/IRIS 1.9 09:02:53 10° SSE 09:05:21 86° ENE 09:07:45 10° NNW
Cosmos 405 3.8 09:09:48 10° NNW 09:13:17 55° WSW 09:16:49 10° S
Exosat Rocket 4.4 09:08:36 10° SSW 09:13:30 43° SE 09:19:13 10° NE
Gbstr 26 Del rocket 2.7 09:13:07 10° W 09:16:56 86° S 09:20:56 10° E
Ariane Rocket 3.0 09:11:56 10° SSE 09:17:07 87° ENE 09:22:14 10° NNW
FALCON 9 DEB 3.1 09:14:34 10° NW 09:17:44 52° NNE 09:20:56 10° ESE
FALCON 9 DEB 3.2 09:14:50 10° NW 09:17:59 48° NNE 09:21:11 10° ESE
Cosmos 1371 Rocket 4.1 09:15:14 10° SSW 09:20:33 77° ESE 09:25:22 12° NNE
Cosmos 2056 Rocket 3.6 09:15:44 10° SSW 09:20:56 70° ESE 09:25:38 13° NNE
OBJECT-B 1.8 09:19:02 10° S 09:22:15 50° WSW 09:25:27 10° NNW
Resurs 1-3 3.6 09:18:56 10° SSE 09:23:27 82° ENE 09:27:53 10° NNW
Cosmos 1624 Rocket 4.1 09:20:40 10° SSW 09:26:07 78° ESE 09:30:56 13° NNE
Cosmos 2112 Rocket 4.2 09:22:52 10° N 09:27:57 55° ENE 09:33:09 10° SSE
Cosmos-2242 4.5 09:26:08 10° NW 09:30:20 40° WSW 09:34:36 10° S
SAR-Lupe-2 3.6 09:27:34 13° NNE 09:30:44 78° ESE 09:34:25 10° SSW
Cosmos 371 Rocket 3.6 09:26:00 10° SSW 09:30:56 66° WNW 09:35:33 11° N
Cosmos 2315 Rocket 4.1 09:27:16 10° N 09:33:27 67° E 09:39:45 10° SSE
SPOT 3 Rocket 3.6 09:28:23 10° SSE 09:33:40 64° ENE 09:38:51 10° N
MTI 4.4 09:31:38 16° NE 09:33:47 40° ESE 09:36:48 10° S
Cosmos 1743 Rocket 3.7 09:30:08 10° S 09:34:42 65° ESE 09:38:26 15° NNE
ASTEX 1 3.5 09:34:12 10° N 09:39:11 82° W 09:44:13 10° S
MetOp-B 4.4 09:35:42 10° SSE 09:41:02 51° E 09:46:02 11° N
Cosmos 1697 Rocket 3.5 09:36:41 10° SSW 09:42:06 42° SE 09:47:02 12° ENE
Cosmos 405 Rocket 4.1 09:38:37 10° SSW 09:42:18 37° W 09:46:02 10° NNW
Cosmos 1805 Rocket 4.2 09:38:34 10° S 09:42:57 44° ESE 09:46:09 17° NE
Thor Agena Rocket 4.0 09:42:13 15° NE 09:46:22 52° ESE 09:51:26 10° S
Cosmos 2074 Rocket 4.4 09:42:20 10° S 09:48:32 54° ESE 09:53:24 16° NNE
Cosmos 2221 2.5 09:44:54 10° N 09:49:18 84° E 09:53:44 10° SSE
Cosmos 1606 3.8 09:48:26 18° NE 09:50:36 31° E 09:54:08 10° SSE
SL-4 R/B 1.9 09:47:38 10° W 09:51:45 87° S 09:55:34 10° E
FALCON 9 DEB 2.9 09:49:29 10° WNW 09:52:45 74° NNE 09:56:03 10° ESE
Cosmos 389 Rocket 2.5 09:49:48 10° NNW 09:53:16 81° WSW 09:56:48 10° S
Cosmos 1833 Rocket 3.8 09:55:06 17° NE 09:57:58 26° ENE 10:02:34 10° SE
SPOT 1/Viking Rocket 3.8 09:53:04 10° SSE 09:58:17 53° E 10:02:27 16° N
Cosmos 1862 3.5 09:54:54 10° SSW 09:59:02 70° W 10:02:08 16° N
Cosmos 2082 Rocket 3.9 09:58:05 13° ENE 09:59:54 15° E 10:02:59 10° ESE
Cosmos 1656 3.7 09:58:56 10° SSW 10:04:40 90° WNW 10:08:49 20° NNE
SOZ 4.4 10:03:45 10° WNW 10:05:56 74° NNE 10:08:27 10° E
ARIANE 5 R/B 2.7 10:04:18 10° SSE 10:08:51 64° ENE 10:12:09 18° N
FALCON 9 DEB 2.9 10:05:35 10° WNW 10:08:52 89° SSW 10:12:10 10° ESE
Cosmos 1842 Rocket 4.1 10:05:25 10° NNW 10:09:45 60° WSW 10:14:09 10° S
CENTAUR R/B 4.4 10:06:09 10° W 10:12:49 36° SSW 10:18:35 10° SE
USA 281 3.8 10:09:16 10° SE 10:15:25 38° ENE 10:19:31 19° NNE
Cosmos 1933 4.4 10:14:10 22° NE 10:15:54 31° E 10:19:36 10° SSE
ERBS 2.9 10:13:30 10° WNW 10:16:55 60° SSW 10:20:22 10° ESE
USA 307 3.5 10:14:29 10° W 10:18:52 62° S 10:23:15 10° E
FALCON 9 DEB 3.2 10:15:26 10° WSW 10:19:00 86° SSE 10:21:34 18° ENE
Terra 2.7 10:15:53 10° SSE 10:20:18 34° E 10:22:32 23° NE
GP-B 3.3 10:18:02 10° S 10:22:36 76° W 10:25:53 18° N
SL-16 R/B 4.2 10:18:49 10° SSW 10:23:15 22° SE 10:27:40 10° E
Sich 1 3.1 10:19:17 10° S 10:23:48 80° ESE 10:26:22 25° NNE
Resurs 01 Rocket 2.8 10:22:01 10° S 10:26:19 43° WSW 10:30:35 10° NW
USA 308 3.5 10:23:11 10° W 10:27:35 62° S 10:31:58 10° E
USA 290 2.7 10:27:04 34° NNE 10:27:54 42° ENE 10:31:04 10° SE
USA 305 3.5 10:24:15 10° W 10:28:36 62° S 10:32:58 10° E
Cosmos 2322 Rocket 4.3 10:25:13 10° SSW 10:29:33 21° SE 10:33:51 10° E
Cosmos 1782 4.3 10:30:07 20° ENE 10:31:23 24° E 10:34:39 10° SE
ATLAS 3B R/B 3.6 10:27:48 10° WNW 10:35:11 57° SW 10:42:25 10° SE
Spot 2 Rocket 3.5 10:30:39 10° SSE 10:35:52 87° WSW 10:39:59 16° NNW
Cosmos 2154 Rocket 4.1 10:31:17 10° S 10:37:42 77° ESE 10:41:52 23° NNE
USA 306 3.4 10:36:05 10° W 10:40:26 62° S 10:44:47 10° E
Resurs 1-4 Rocket 4.3 10:37:47 10° E 10:41:05 17° SE 10:44:24 10° SSE
Cosmos 2278 4.1 10:35:25 10° SSW 10:41:06 57° SE 10:45:01 20° NE
Cosmos 1151 Rocket 3.6 10:39:29 28° NE 10:41:14 41° E 10:45:21 10° SSE
Cosmos 1980 Rocket 2.5 10:39:43 10° SSW 10:45:23 62° SE 10:49:05 21° NE
CARTOSAT-1 3.6 10:42:16 10° SSE 10:46:42 81° WSW 10:49:34 21° NNW
CZ-2D R/B 4.3 10:43:58 10° E 10:47:24 18° SE 10:50:51 10° SSE
Cosmos 1048 Rocket 4.3 10:45:08 26° NNE 10:47:55 50° ENE 10:53:10 10° SSE
Meteor 1-25 Rocket 4.2 10:43:22 10° SSW 10:49:03 87° ESE 10:52:23 26° NNE
Cosmos 2360 4.2 10:44:36 10° SSW 10:50:25 88° WNW 10:53:48 26° NNE
FALCON 9 DEB 3.3 10:50:21 10° W 10:53:37 68° S 10:56:53 10° ESE
FALCON 9 DEB 3.3 10:50:39 10° W 10:53:55 69° S 10:57:13 10° ESE
ERS-1 Rocket 3.0 10:51:38 10° SSE 10:56:47 89° WSW 11:00:06 22° NNW
Cosmos 1607 4.1 10:51:05 10° SW 10:57:04 58° WNW 11:00:25 26° NNE
Meteor 1-4 Rocket 3.0 10:58:59 26° NNW 11:00:53 59° WSW 11:04:30 10° S
Gbstr 26 Del rocket 2.7 10:59:52 10° W 11:03:42 70° NNW 11:05:58 26° ENE
SPOT 5 2.8 11:00:28 10° SSE 11:04:58 78° WSW 11:07:47 24° NNW
Cosmos 1470 Rocket 3.6 11:05:47 10° S 11:10:14 73° E 11:12:01 35° NNE
Cosmos 494 Rocket 4.2 11:08:35 30° N 11:11:02 54° ENE 11:16:15 10° SSE
Cosmos 1452 Rocket 4.2 11:06:08 10° SW 11:11:13 45° WNW 11:13:54 25° NNW
Cosmos 1515 Rocket 4.2 11:10:15 31° NE 11:11:47 43° E 11:16:03 10° SSE
Cosmos 1633 Rocket 3.3 11:10:01 10° SSW 11:14:27 62° W 11:16:23 32° NNW
EO 1 Del DPAF 4.0 11:13:54 30° NNW 11:15:17 43° W 11:18:58 10° SSW
Cosmos 1602 3.8 11:11:54 10° SSW 11:15:56 77° W 11:17:18 39° N
Cosmos 724 4.2 11:10:54 10° SW 11:16:45 90° NW 11:20:09 26° NE
COSMOS 2406 3.2 11:12:22 16° NNW 11:17:02 84° WSW 11:22:49 10° SSE
Meteor 1-26 Rocket 4.4 11:13:51 27° N 11:17:20 78° E 11:23:29 10° SSE
Cosmos 1666 4.2 11:14:39 10° S 11:18:08 29° ESE 11:19:40 22° ENE
Cosmos 1437 Rocket 3.8 11:18:41 29° ENE 11:19:39 34° E 11:23:18 10° SSE
Cosmos 220 Rocket 4.1 11:16:49 10° SSW 11:21:22 75° ESE 11:23:17 34° NE
BREEZE M DEB (TANK) 4.1 11:22:57 10° WNW 11:23:00 10° WNW 11:23:00 10° WNW
USA 229 DEB 4.5 11:22:15 26° NNE 11:25:40 39° ENE 11:32:20 10° SE
USA 229 4.5 11:22:22 26° NNE 11:25:46 38° ENE 11:32:25 10° SE
Cosmos 1697 Rocket 3.3 11:20:47 10° SW 11:26:08 43° WNW 11:28:45 27° NNW
Cosmos 1812 3.6 11:26:06 31° ENE 11:26:59 36° E 11:30:37 10° SSE
Cosmos 292 Rocket 4.1 11:22:33 10° SSW 11:27:23 56° WNW 11:29:23 32° N
FALCON 9 DEB 3.4 11:25:33 10° W 11:28:49 64° S 11:32:07 10° E
Cosmos 1500 3.2 11:26:30 10° S 11:30:25 74° E 11:31:34 43° NNE
SL-4 R/B 1.7 11:27:26 10° W 11:31:20 65° NNW 11:32:17 45° NE
CZ-4 R/B 3.8 11:32:48 34° NNE 11:34:51 84° ESE 11:39:41 10° SSW
Cosmos 1933 Rocket 3.6 11:30:47 10° S 11:35:23 88° ESE 11:37:07 38° NNE
PSLV R/B 3.8 11:34:36 36° NNW 11:36:11 61° W 11:40:36 10° SSW
deb Kosmos-1763 4.5 11:35:27 30° NW 11:36:58 57° WSW 11:40:33 10° SSE
Lacrosse 5 2.9 11:37:56 27° NE 11:38:09 27° NE 11:42:26 10° ESE
Cosmos 2369 4.4 11:33:08 10° SW 11:38:33 43° WNW 11:41:03 28° NNW
Cosmos 1833 Rocket 3.0 11:36:45 15° NW 11:41:27 67° SW 11:47:10 10° SSE
Cosmos 2082 Rocket 2.1 11:39:54 28° NNW 11:43:04 79° ENE 11:48:46 10° SSE
FALCON 9 DEB 3.3 11:41:38 10° W 11:44:55 66° S 11:48:12 10° E
ERBS 4.3 11:50:25 10° WSW 11:53:35 32° S 11:56:44 10° ESE
Cosmos 1242 Rocket 4.2 11:53:12 21° ENE 11:53:46 22° E 11:56:38 10° SE
Cosmos 1867 3.5 11:48:47 10° SW 11:54:14 86° NW 11:57:12 28° NE
Meteor 1-29 4.5 11:53:39 23° ENE 11:54:59 30° ESE 11:58:09 10° S
